Rochester, Indiana, United States (46975)
Lat: 41.06N, Lon: 86.22W
Wx Zone: INZ015
Local Info
Past Weather Observations for Today

NOTE: This archive is for the closest National Weather Service station to Rochester. Information may differ from the station used for current weather conditions.

Click here for Long-term Archive

Time Weather Temperature Dewpoint Humidity Pressure Winds Precip Visibility
19:15
Clear
Hazy
32°F / 0°C 27°F / -3°C 80% 30.15 in
(1021 mb)
SE 5.8 mph
(SE 9 kph)
- 5SM
18:55
Clear
32°F / 0°C 27°F / -3°C 80% 30.15 in
(1021 mb)
SE 6.9 mph
(SE 11 kph)
- 7SM
18:35
Clear
32°F / 0°C 27°F / -3°C 80% 30.15 in
(1021 mb)
SE 4.6 mph
(SE 7 kph)
- 7SM
18:15
Clear
32°F / 0°C 27°F / -3°C 80% 30.15 in
(1021 mb)
SE 5.8 mph
(SE 9 kph)
- 7SM
17:55
Clear
32°F / 0°C 27°F / -3°C 80% 30.15 in
(1021 mb)
SE 3.5 mph
(SE 6 kph)
- 7SM
17:35
Clear
32°F / 0°C 27°F / -3°C 80% 30.15 in
(1021 mb)
SE 4.6 mph
(SE 7 kph)
- 7SM
17:15
Clear
Hazy
32°F / 0°C 27°F / -3°C 80% 30.15 in
(1021 mb)
SE 4.6 mph
(SE 7 kph)
- 5SM
16:55
Clear
34°F / 1°C 27°F / -3°C 75% 30.15 in
(1021 mb)
SE 6.9 mph
(SE 11 kph)
- 7SM
16:35
Clear
34°F / 1°C 27°F / -3°C 75% 30.15 in
(1021 mb)
SE 5.8 mph
(SE 9 kph)
- 7SM
16:15
Clear
34°F / 1°C 28°F / -2°C 81% 30.15 in
(1021 mb)
SSE 4.6 mph
(SSE 7 kph)
- 7SM
15:55
Clear
36°F / 2°C 27°F / -3°C 70% 30.15 in
(1021 mb)
SE 4.6 mph
(SE 7 kph)
- 7SM
15:35
Clear
36°F / 2°C 27°F / -3°C 70% 30.15 in
(1021 mb)
SSE 6.9 mph
(SSE 11 kph)
- 7SM
15:15
Clear
36°F / 2°C 28°F / -2°C 75% 30.15 in
(1021 mb)
SE 6.9 mph
(SE 11 kph)
- 7SM
14:55
Clear
36°F / 2°C 27°F / -3°C 70% 30.15 in
(1021 mb)
SSE 5.8 mph
(SSE 9 kph)
- 7SM
14:35
Clear
36°F / 2°C 28°F / -2°C 75% 30.18 in
(1022 mb)
SSE 6.9 mph
(SSE 11 kph)
- 7SM
14:15
Clear
Hazy
34°F / 1°C 28°F / -2°C 81% 30.18 in
(1022 mb)
SSE 6.9 mph
(SSE 11 kph)
- 5SM
13:55
Clear
36°F / 2°C 27°F / -3°C 70% 30.18 in
(1022 mb)
S 5.8 mph
(S 9 kph)
- 7SM
13:35
Clear
36°F / 2°C 28°F / -2°C 75% 30.18 in
(1022 mb)
S 6.9 mph
(S 11 kph)
- 7SM
13:15
Partly Cloudy
Hazy
34°F / 1°C 27°F / -3°C 75% 30.21 in
(1023 mb)
S 4.6 mph
(S 7 kph)
- 5SM
12:55
Overcast
34°F / 1°C 27°F / -3°C 75% 30.21 in
(1023 mb)
S 8.1 mph
(S 13 kph)
- 7SM
12:35
Overcast
Hazy
34°F / 1°C 27°F / -3°C 75% 30.21 in
(1023 mb)
SSE 6.9 mph
(SSE 11 kph)
- 5SM
12:15
Overcast
34°F / 1°C 27°F / -3°C 75% 30.24 in
(1024 mb)
S 6.9 mph
(S 11 kph)
- 7SM
11:55
Overcast
32°F / 0°C 27°F / -3°C 80% 30.24 in
(1024 mb)
SSE 6.9 mph
(SSE 11 kph)
- 7SM
11:35
Overcast
32°F / 0°C 27°F / -3°C 80% 30.27 in
(1025 mb)
S 6.9 mph
(S 11 kph)
- 7SM
11:15
Overcast
32°F / 0°C 27°F / -3°C 80% 30.27 in
(1025 mb)
SSE 4.6 mph
(SSE 7 kph)
- 7SM
10:55
Overcast
Hazy
32°F / 0°C 27°F / -3°C 80% 30.27 in
(1025 mb)
S 6.9 mph
(S 11 kph)
- 5SM
10:35
Overcast
Hazy
32°F / 0°C 27°F / -3°C 80% 30.27 in
(1025 mb)
S 6.9 mph
(S 11 kph)
- 5SM
10:15
Overcast
Hazy
32°F / 0°C 27°F / -3°C 80% 30.27 in
(1025 mb)
SSE 4.6 mph
(SSE 7 kph)
- 5SM
09:55
Overcast
Hazy
32°F / 0°C 27°F / -3°C 80% 30.27 in
(1025 mb)
S 3.5 mph
(S 6 kph)
- 5SM
09:35
Overcast
Hazy
32°F / 0°C 27°F / -3°C 80% 30.27 in
(1025 mb)
S 5.8 mph
(S 9 kph)
- 5SM
09:15
Overcast
Fog And Mist
30°F / -1°C 27°F / -3°C 86% 30.27 in
(1025 mb)
S 3.5 mph
(S 6 kph)
- 4SM
08:55
Overcast
Fog And Mist
30°F / -1°C 27°F / -3°C 86% 30.27 in
(1025 mb)
SSE 4.6 mph
(SSE 7 kph)
- 4SM
08:35
Overcast
Fog And Mist
30°F / -1°C 28°F / -2°C 93% 30.27 in
(1025 mb)
Calm - 4SM
08:15
Overcast
Fog And Mist
30°F / -1°C 27°F / -3°C 86% 30.27 in
(1025 mb)
Calm - 5SM
07:55
Overcast
Fog And Mist
30°F / -1°C 27°F / -3°C 86% 30.27 in
(1025 mb)
SSE 3.5 mph
(SSE 6 kph)
- 5SM
07:35
Overcast
Fog And Mist
30°F / -1°C 27°F / -3°C 86% 30.27 in
(1025 mb)
SSE 3.5 mph
(SSE 6 kph)
- 5SM
07:15
Overcast
Fog And Mist
30°F / -1°C 27°F / -3°C 86% 30.27 in
(1025 mb)
Calm - 5SM
06:55
Overcast
Fog And Mist
30°F / -1°C 28°F / -2°C 93% 30.27 in
(1025 mb)
Calm - 5SM
06:35
Overcast
Fog And Mist
30°F / -1°C 28°F / -2°C 93% 30.27 in
(1025 mb)
Calm - 5SM
06:15
Overcast
Fog And Mist
30°F / -1°C 28°F / -2°C 93% 30.27 in
(1025 mb)
Calm - 5SM
05:55
Overcast
Fog And Mist
30°F / -1°C 28°F / -2°C 93% 30.27 in
(1025 mb)
Calm - 5SM
05:35
Overcast
Fog And Mist
30°F / -1°C 28°F / -2°C 93% 30.27 in
(1025 mb)
Calm - 5SM
05:15
Overcast
Fog And Mist
30°F / -1°C 28°F / -2°C 93% 30.27 in
(1025 mb)
Calm - 5SM
04:55
Overcast
Fog And Mist
30°F / -1°C 28°F / -2°C 93% 30.27 in
(1025 mb)
Calm - 5SM
04:35
Overcast
Fog And Mist
30°F / -1°C 28°F / -2°C 93% 30.27 in
(1025 mb)
Calm - 5SM
04:15
Overcast
Fog And Mist
30°F / -1°C 28°F / -2°C 93% 30.27 in
(1025 mb)
S 3.5 mph
(S 6 kph)
- 5SM
03:55
Overcast
30°F / -1°C 28°F / -2°C 93% 30.27 in
(1025 mb)
S 3.5 mph
(S 6 kph)
- 7SM
03:35
Overcast
30°F / -1°C 28°F / -2°C 93% 30.27 in
(1025 mb)
Calm - 7SM
03:15
Overcast
30°F / -1°C 28°F / -2°C 93% 30.27 in
(1025 mb)
Calm - 7SM
02:55
Overcast
30°F / -1°C 28°F / -2°C 93% 30.27 in
(1025 mb)
Calm - 7SM
02:35
Overcast
30°F / -1°C 28°F / -2°C 93% 30.27 in
(1025 mb)
Calm - 7SM
02:15
Overcast
30°F / -1°C 28°F / -2°C 93% 30.27 in
(1025 mb)
Calm - 7SM
01:55
Overcast
30°F / -1°C 28°F / -2°C 93% 30.27 in
(1025 mb)
Calm - 7SM
01:35
Overcast
30°F / -1°C 28°F / -2°C 93% 30.27 in
(1025 mb)
Calm - 7SM
01:15
Overcast
30°F / -1°C 28°F / -2°C 93% 30.27 in
(1025 mb)
Calm - 7SM
00:55
Overcast
30°F / -1°C 28°F / -2°C 93% 30.27 in
(1025 mb)
Calm - 7SM
00:35
Overcast
30°F / -1°C 28°F / -2°C 93% 30.27 in
(1025 mb)
Calm - 7SM
00:15
Overcast
30°F / -1°C 28°F / -2°C 93% 30.27 in
(1025 mb)
Calm - 7SM
Time Weather Temperature Dewpoint Humidity Pressure Winds Precip Visibility


Weather for websites

WeatherForYou.com, LLC is not responsible for any damages or problems caused by this service. Current weather conditions are obtained from the closest station including government and personal stations which may have varying degrees of accuracy. Weather forecasts are derived from the NOAA NDFD. Like all things, this site belongs to Jesus Christ... He just trusts me to maintain it. If you have any questions or comments email webmaster@weatherforyou.com

Copyright © 2014, WeatherForYou.com LLC. All rights reserved.